S-NET A

Last updated on Fri Dec 29 2023 00:03:02 GMT+0000 (Coordinated Universal Time)

1 43188U 18014J 23362.26984025 .00005559 00000+0 42397-3 0 9991 2 43188 97.6082 262.3108 0010941 220.4227 139.6186 15.02372605322679
UTC large
Height (km)
Speed (km/s)
/
Latitude / Longitude
Inclination (degrees)
Orbital Period (minutes)
Azimuth
Elevation
Range (km)
Doppler Factor

Next 0 passes for location: London (51.5072 / 0.1276)

Sorry there are no passes over London.